GFSGBSN_850_temp_297.txt.gz
Temp
11 12 11 10 11 12 12 11 12 12 12 12 13 14 13 14 14 14 15 15 15 15 15 15 16 17 17 17 16 18 19 20 21 21 21 20 19 16 13 15 15 13 13 14 14 14 13
11 12 12 11 11 12 13 12 12 12 12 12 12 13 13 14 14 14 15 15 15 15 15 15 16 17 17 14 16 17 18 20 21 21 20 21 18 17 16 15 13 14 14 14 14 14 13
11 11 12 11 11 11 12 13 12 12 12 11 12 13 13 14 14 14 15 15 15 15 15 15 16 16 16 15 16 17 19 19 20 20 20 20 20 19 15 14 14 14 12 13 13 13 13
11 10 11 11 11 10 11 13 12 12 12 11 11 13 13 14 14 14 14 15 15 15 15 15 16 16 15 15 16 17 18 19 19 20 20 19 19 18 16 15 14 12 11 10 13 13 13
10 10 11 11 11 10 11 12 12 12 12 11 11 12 12 13 14 14 14 15 15 15 15 15 15 16 15 15 16 16 18 18 19 19 19 19 19 16 16 13 11 10 11 10 12 12 13
10 10 11 11 11 11 11 12 12 12 12 11 12 11 12 13 14 14 14 15 14 15 15 15 15 16 16 15 16 16 17 18 18 19 19 19 18 11 10 10 12 12 11 12 12 12 10
10 10 10 11 11 10 10 12 12 12 12 12 12 11 12 12 13 14 14 14 15 15 15 14 14 15 15 15 16 17 18 18 18 18 12 14 10 11 11 11 13 11 11 10 11 11 10
10 11 10 10 10 11 11 12 13 12 12 11 12 11 12 12 13 14 14 14 14 14 14 14 14 15 15 15 17 17 18 18 16 12 13 9 10 11 12 11 11 11 10 11 11 11 10
10 10 10 10 11 11 11 11 12 12 11 11 12 12 11 12 13 13 13 13 14 14 14 14 14 15 15 15 14 15 16 16 12 10 10 9 12 13 12 10 12 10 11 12 11 11 9
10 10 10 10 10 10 11 11 12 12 11 11 11 11 11 12 12 12 13 13 14 14 7 12 14 14 15 15 14 15 15 15 13 10 9 9 11 11 10 10 11 12 12 13 11 9 8
10 10 10 10 10 10 10 12 12 12 11 10 11 11 11 11 12 12 13 13 14 14 8 13 14 14 14 14 14 14 15 15 10 10 11 9 10 10 10 11 11 11 12 12 13 10 9
9 10 10 10 10 9 10 12 12 11 11 10 11 11 11 11 12 12 13 13 14 6 8 12 13 13 13 13 13 14 14 14 12 9 9 9 11 10 11 11 11 12 11 8 7 8 7
10 10 10 9 10 9 10 11 11 10 10 10 10 11 10 11 12 12 13 14 7 6 12 12 12 13 12 12 12 12 12 11 8 8 9 8 8 9 11 11 11 9 7 4 8 5 7
9 10 9 9 10 9 10 11 11 10 10 9 10 11 10 11 12 12 12 7 5 9 11 13 12 12 12 12 12 12 10 9 10 7 5 7 8 9 10 10 10 10 8 4 9 7 9
9 9 9 10 9 9 10 10 9 10 9 10 10 10 9 10 11 12 12 4 6 8 12 12 12 12 12 13 11 11 11 9 10 10 8 6 8 9 9 9 9 10 6 7 6 5 7
8 9 9 9 9 9 9 10 10 10 9 9 9 9 8 9 10 11 5 7 9 11 13 12 11 12 10 11 11 10 10 10 10 11 9 8 7 9 9 10 9 9 7 5 0 5 5
8 9 9 9 9 8 8 9 8 9 9 9 9 7 7 9 9 9 2 6 10 13 14 13 12 11 11 11 10 11 9 11 10 9 10 6 5 7 9 8 7 6 5 4 3 3 4
9 9 9 9 8 8 8 9 8 8 8 7 7 4 7 8 7 4 3 9 12 14 14 14 14 13 11 11 11 11 10 10 11 11 9 7 3 4 8 8 7 7 7 5 1 3 2
8 9 9 9 9 8 8 8 7 8 8 7 6 4 6 7 2 2 7 10 12 13 13 13 14 14 12 10 10 9 9 9 10 9 7 7 3 1 6 6 5 6 1 -3 -3 2 5
8 8 8 8 9 8 8 6 7 8 7 8 7 2 5 6 5 6 8 10 12 13 13 14 13 13 10 9 8 8 8 8 9 9 9 9 4 3 5 4 1 -0 -1 -4 -1 -1 2
8 8 9 9 9 7 6 5 6 5 6 7 7 4 5 3 3 6 9 9 11 12 13 14 12 12 10 8 8 7 7 7 8 8 8 6 3 1 1 5 5 4 3 1 -0 2 4
8 8 8 9 8 7 4 5 5 5 7 7 7 5 5 6 7 6 7 8 10 11 12 12 10 10 10 8 9 6 6 7 8 7 6 4 2 5 4 6 5 6 5 2 3 4 3
8 8 8 8 8 7 4 5 5 5 6 7 8 8 9 6 6 4 5 8 9 11 11 12 11 9 10 10 10 10 10 9 8 6 4 4 2 2 3 5 6 4 5 4 4 4 5
8 8 8 8 8 7 4 3 5 5 6 7 8 8 8 2 5 6 8 9 9 11 10 10 12 9 8 10 9 9 8 8 8 6 7 3 2 -1 -0 4 2 7 7 7 5 5 4
7 8 8 8 7 6 5 5 5 4 5 7 8 9 8 2 6 7 8 9 10 9 8 9 10 11 10 10 3 2 1 4 4 6 5 6 1 -2 -1 2 5 8 7 6 6 5 4
7 7 7 7 7 6 5 5 4 5 5 7 8 9 9 6 4 8 9 9 4 4 5 6 8 9 9 4 1 0 2 4 4 5 5 4 2 2 -1 0 2 5 7 9 8 4 4
7 7 7 7 6 5 4 4 4 5 5 7 8 9 9 6 4 7 7 7 9 7 1 7 7 8 8 -2 0 1 2 5 4 4 3 3 1 -0 -3 -1 3 5 8 9 6 4 4
7 7 6 6 5 5 4 4 4 5 5 6 7 8 9 5 4 6 8 8 8 9 3 6 6 7 2 1 1 -0 2 2 4 5 4 4 2 -1 -2 -4 2 6 8 7 4 4 4
6 6 5 5 5 5 4 3 3 5 5 6 7 8 9 9 4 5 6 8 9 10 10 6 7 7 8 0 -0 -0 1 0 3 3 5 4 3 2 2 2 4 4 6 5 5 4 3

GFSGBSN_850_temp_300.txt.gz
Temp
12 12 12 13 11 11 11 11 12 13 13 13 13 13 13 14 14 14 16 16 16 16 16 16 17 17 18 17 16 17 19 20 21 21 21 21 18 15 12 14 14 12 11 12 11 11 11
11 12 12 11 11 10 11 11 11 12 13 13 13 13 13 13 14 14 15 16 16 16 16 16 17 17 18 15 16 17 19 20 21 22 21 22 16 15 15 13 12 12 11 11 11 11 11
11 11 12 12 10 11 11 11 10 12 13 13 13 13 13 14 14 14 15 16 16 16 16 16 16 17 17 15 16 17 18 19 20 20 20 19 19 18 13 13 13 12 11 12 11 11 11
12 11 11 11 11 11 12 11 11 12 12 13 13 13 13 14 14 13 14 15 16 16 16 16 16 17 16 16 16 17 18 19 19 20 20 19 18 16 14 14 13 11 10 9 12 12 11
12 11 11 11 11 10 11 12 11 11 12 13 13 13 13 14 14 13 14 15 15 16 16 16 16 17 16 16 17 17 18 18 19 18 18 19 19 15 15 11 10 8 9 9 12 12 11
12 11 10 10 11 10 11 11 11 10 11 12 13 13 13 14 14 14 14 14 15 16 16 16 16 16 15 15 16 17 18 18 18 18 18 17 16 10 8 10 12 11 9 11 11 10 8
11 11 11 10 11 10 10 11 12 11 11 12 13 13 13 14 14 14 14 14 15 16 16 14 14 14 15 15 16 17 18 18 18 18 10 14 9 13 10 11 11 9 10 9 10 10 9
10 11 11 10 10 10 10 11 11 12 11 11 12 13 13 13 13 14 13 14 15 15 14 14 14 14 15 16 17 17 18 18 16 11 12 9 10 10 11 9 11 10 9 9 11 10 9
10 10 11 10 10 10 10 10 11 12 11 11 11 12 13 12 13 13 14 14 14 15 14 14 14 15 15 16 14 15 16 15 12 9 9 9 11 11 11 10 11 10 9 9 10 9 9
9 10 10 10 10 10 10 10 11 12 11 11 11 12 13 12 13 13 13 13 14 15 8 13 14 14 15 15 14 15 15 15 12 10 9 8 10 11 10 10 10 11 11 10 9 8 8
9 10 10 10 10 10 10 10 11 12 11 11 11 11 13 12 12 12 13 14 14 14 10 12 13 14 14 14 14 14 15 15 10 9 10 9 9 10 9 10 11 11 11 11 11 8 8
9 9 10 10 10 10 10 9 10 12 10 11 11 11 12 12 12 12 13 14 14 5 8 12 13 13 13 13 13 14 14 14 11 8 8 8 10 9 10 10 10 10 9 7 6 7 7
8 9 10 10 10 10 10 9 10 11 10 11 11 11 11 12 12 12 13 14 6 5 11 11 11 12 12 12 12 12 11 10 8 8 9 8 8 9 10 10 11 8 7 4 7 5 6
7 9 9 10 9 10 10 9 10 10 10 10 10 11 10 11 12 12 13 7 6 9 10 12 11 11 11 12 11 11 10 9 9 7 5 7 8 8 9 9 10 9 8 4 8 6 9
6 8 9 10 10 9 9 9 10 10 9 10 10 10 9 11 11 12 13 2 6 8 11 11 11 11 11 12 11 11 10 8 9 8 9 6 8 9 9 9 9 10 7 7 5 5 6
6 7 9 9 9 9 9 9 10 9 8 9 9 8 9 11 11 11 5 6 9 10 12 12 11 11 9 10 10 10 9 10 9 10 9 7 7 8 9 9 8 9 6 5 1 5 5
5 7 8 9 9 9 9 9 9 9 9 8 8 8 8 9 9 10 1 5 10 12 13 13 11 10 10 10 9 10 9 10 10 8 8 6 5 7 9 7 7 6 5 3 3 3 4
5 7 8 8 9 9 9 9 8 10 8 7 8 3 7 8 7 2 1 8 12 13 13 13 13 11 10 10 10 10 9 10 10 10 9 7 3 4 8 7 7 7 7 5 1 3 2
6 7 8 8 9 9 9 8 9 9 8 8 8 4 6 8 3 2 6 9 12 12 12 12 13 12 11 9 9 9 9 8 9 9 7 6 4 1 7 6 5 6 1 -3 -3 2 4
5 6 8 8 8 9 8 8 9 9 8 8 6 2 5 6 6 5 7 9 11 13 13 13 12 11 9 9 7 7 8 7 9 8 9 8 4 3 6 5 1 -0 -1 -4 -1 -0 3
4 6 7 8 8 8 8 8 9 8 8 8 7 3 5 3 4 5 8 9 10 11 13 13 12 11 9 8 8 6 7 7 8 8 7 6 3 1 1 4 5 4 2 0 -0 2 5
4 6 7 7 8 8 8 7 8 6 7 8 7 5 5 6 7 6 7 7 10 11 11 12 11 9 9 8 9 5 6 6 7 7 6 4 2 5 4 5 5 6 4 2 3 4 3
4 6 7 8 8 8 8 7 7 6 7 8 8 9 9 6 6 4 4 7 9 11 10 12 10 9 10 9 10 9 9 9 8 5 4 4 2 2 4 5 6 4 5 3 3 4 4
5 6 6 7 8 8 7 6 6 7 7 8 8 8 8 2 5 6 7 9 9 10 10 9 11 9 7 9 9 9 8 7 7 5 6 3 2 -0 0 4 3 8 7 6 5 4 4
5 5 6 8 8 7 7 5 4 6 6 5 6 7 8 2 5 6 7 8 9 10 8 9 9 10 10 10 3 3 2 4 4 4 4 4 1 -2 -0 2 5 7 6 5 5 5 4
6 5 6 7 8 8 7 5 4 4 4 5 5 7 9 5 4 6 7 7 4 4 5 5 7 8 9 4 1 1 4 4 3 5 4 3 2 1 -1 1 3 6 7 8 7 5 4
5 6 6 6 7 7 7 3 3 3 4 4 5 8 9 7 5 7 7 6 9 6 2 5 6 7 7 -0 0 1 3 5 4 4 3 3 0 -1 -3 -0 3 5 7 8 6 4 4
5 6 7 7 7 7 6 2 2 2 3 4 6 8 10 8 5 6 8 9 8 9 3 6 5 6 2 1 1 -0 1 2 4 4 4 4 1 -2 -2 -3 3 5 7 6 5 4 5
5 6 7 7 7 6 5 3 2 2 3 5 7 8 9 10 5 5 7 8 9 10 11 7 7 7 9 -0 -2 -1 0 -1 3 3 4 4 3 2 1 2 3 4 4 6 6 5 4

GFSGBSN_850_temp_303.txt.gz
Temp
12 12 12 11 11 11 10 11 11 12 13 13 13 13 14 14 14 15 15 16 16 17 17 17 18 18 18 18 16 18 20 21 21 20 21 21 20 14 15 14 13 13 11 11 10 10 10
12 12 12 11 11 11 11 11 11 12 12 12 13 14 14 14 14 15 16 15 16 16 17 17 18 19 19 15 16 18 19 21 21 21 21 22 16 15 14 12 13 12 11 11 11 10 10
11 11 12 12 11 10 11 12 11 12 12 12 13 13 14 14 14 15 15 15 16 16 17 17 18 18 18 15 17 17 20 20 20 20 20 18 18 19 13 12 11 12 12 12 11 11 11
11 11 12 13 11 10 11 12 12 11 12 12 12 13 13 14 14 15 15 15 15 16 16 17 18 18 15 16 17 18 18 19 19 19 19 17 18 16 13 12 13 14 13 13 12 12 10
10 11 11 12 12 11 10 11 11 11 12 12 12 13 13 14 14 14 15 15 15 16 16 17 18 18 16 16 18 18 18 18 18 17 17 17 16 13 14 15 14 13 14 13 12 11 12
10 10 11 11 11 11 10 11 11 12 12 12 12 13 13 13 14 14 14 15 15 15 16 17 17 17 16 15 17 17 17 18 18 18 18 17 16 15 14 16 17 14 13 12 13 12 12
9 10 11 11 11 11 10 10 11 12 12 12 12 12 13 13 14 14 14 15 15 15 15 14 15 14 15 16 16 17 17 18 18 18 14 13 16 14 12 12 12 13 14 13 11 11 12
8 10 10 11 10 10 10 10 10 11 11 11 12 12 13 13 14 14 15 15 14 14 13 14 15 15 15 16 17 17 18 17 16 13 12 14 12 11 11 12 13 13 13 11 11 11 12
8 9 10 10 10 10 10 10 10 11 11 12 11 12 13 13 13 14 14 15 15 14 14 14 14 15 15 15 14 15 16 15 12 11 12 13 11 10 11 12 14 11 13 11 13 11 11
8 9 9 10 10 10 10 10 11 11 11 12 11 12 12 12 12 14 14 14 15 15 10 12 14 14 15 15 14 14 15 15 11 11 10 10 10 11 11 11 12 13 12 11 12 13 13
7 7 9 10 10 9 10 10 10 11 11 11 11 11 12 12 13 13 14 14 15 15 12 12 13 13 14 14 13 14 15 15 10 9 12 10 10 11 12 10 11 12 11 12 12 12 12
4 7 8 9 10 10 9 10 10 10 11 11 11 11 11 12 12 13 14 14 14 9 11 12 13 13 13 13 13 13 14 14 11 10 10 9 9 9 11 10 10 10 12 11 10 11 13
3 6 7 8 9 10 10 10 10 10 11 11 11 10 10 11 13 13 14 14 9 9 11 11 12 12 12 11 12 11 11 10 11 11 11 10 9 9 10 12 11 11 12 12 13 12 13
3 4 6 8 10 10 9 10 9 10 11 10 10 10 10 11 12 13 14 10 9 9 11 11 11 11 12 12 11 11 11 10 9 9 9 11 11 9 9 10 12 10 12 11 14 13 13
3 4 6 7 8 9 9 10 10 9 11 10 10 10 10 11 11 13 13 6 8 9 11 11 12 11 11 11 11 11 10 10 10 9 12 10 9 8 8 9 10 10 11 9 9 7 10
2 3 5 6 8 9 9 9 10 9 10 10 9 9 9 11 11 12 7 8 10 10 11 12 11 11 10 11 11 11 10 10 9 9 8 9 9 8 9 9 8 10 8 10 7 11 11
2 3 4 6 7 9 9 9 9 8 9 9 9 8 8 10 10 12 5 6 9 11 13 12 11 10 10 10 10 10 10 9 9 8 8 7 8 8 9 9 9 8 9 6 8 8 12
2 3 4 6 7 9 9 9 8 8 7 8 8 5 8 9 9 4 5 8 11 11 12 13 12 11 10 10 10 9 9 10 10 9 10 7 6 8 8 7 7 7 9 9 10 8 7
1 2 4 6 6 8 9 9 8 7 8 8 8 5 7 9 3 4 6 9 10 12 12 12 12 12 10 10 10 9 8 7 9 9 8 7 7 7 9 8 6 7 4 1 2 6 8
1 2 4 5 6 8 8 8 8 6 8 9 9 2 6 7 6 7 8 9 10 12 12 13 10 10 9 9 8 8 7 7 8 8 9 9 6 7 11 8 5 4 2 -1 3 7 8
2 2 3 5 6 6 8 8 8 7 8 10 9 3 6 3 4 6 9 8 10 11 12 13 11 11 10 8 8 7 7 7 7 7 7 8 6 4 4 5 6 6 5 3 3 6 10
2 3 2 4 5 7 8 8 8 7 8 9 7 4 5 6 6 7 7 7 10 10 10 11 11 10 9 8 10 7 7 7 8 7 7 5 5 6 5 5 6 7 6 5 5 6 6
1 2 3 3 5 6 7 8 8 6 8 9 7 8 8 5 6 6 6 7 9 11 10 11 11 9 10 9 9 8 8 8 8 6 5 6 4 6 7 6 7 8 7 7 6 6 8
1 2 2 4 5 6 7 7 7 6 8 9 8 9 8 4 6 7 6 9 9 9 9 9 10 9 8 8 9 9 7 6 6 4 6 5 4 3 4 6 8 10 7 8 7 6 6
1 2 3 4 5 6 6 7 5 5 7 8 8 9 9 2 6 7 7 9 9 9 8 8 9 9 10 10 5 5 4 6 4 4 4 5 4 2 5 6 8 7 6 7 7 9 6
1 2 3 4 5 6 7 7 5 6 7 7 8 9 9 5 4 7 7 7 5 5 6 5 7 8 8 5 4 6 7 6 5 5 4 4 4 6 3 6 8 8 8 7 7 9 5
1 3 3 4 5 6 7 7 4 7 6 7 7 7 7 7 5 7 6 6 9 6 4 5 6 7 7 2 4 6 6 6 6 5 4 5 3 4 2 6 7 7 7 7 9 9 4
1 3 3 5 6 6 6 5 3 4 4 5 6 6 7 8 5 6 7 7 8 8 4 6 6 6 3 4 5 4 5 5 6 6 5 6 4 4 2 4 6 5 7 8 7 4 5
2 4 3 4 5 6 6 6 3 2 4 4 4 5 5 6 5 5 6 7 8 10 10 8 8 8 10 3 2 3 4 3 5 6 5 6 6 5 5 6 3 4 4 5 6 6 4

GFSGBSN_850_temp_306.txt.gz
Temp
11 11 12 11 11 11 11 11 12 12 12 12 13 14 14 14 15 15 15 16 15 16 17 18 18 18 20 19 17 19 20 20 20 21 21 21 20 19 19 17 17 17 16 15 15 15 14
11 11 11 11 11 11 11 11 12 12 13 13 13 13 14 14 15 15 15 16 16 16 17 18 19 19 19 18 17 19 19 20 20 21 20 21 19 18 17 18 18 15 15 15 15 14 14
11 11 10 11 11 11 11 11 11 12 13 13 12 13 14 14 15 15 15 16 16 16 17 18 18 19 18 16 17 18 19 18 19 21 19 18 18 19 16 16 15 15 16 16 16 16 15
10 10 11 11 10 10 11 11 12 11 12 13 12 13 13 14 15 15 15 15 16 16 17 17 18 18 16 17 17 18 17 17 18 18 20 17 17 17 17 15 17 19 19 18 16 16 14
10 10 10 10 10 10 10 11 12 11 12 13 13 12 13 14 15 15 15 15 16 16 17 17 18 18 17 17 17 17 16 17 17 17 17 17 17 16 17 19 19 19 20 19 16 16 16
9 10 11 10 10 10 10 10 11 11 11 12 13 13 12 13 14 15 15 15 15 16 17 17 17 18 16 16 17 17 17 16 18 18 18 18 18 20 21 21 22 20 19 18 18 17 17
8 8 10 10 10 10 10 10 11 11 12 12 13 13 13 13 14 14 15 15 15 16 16 13 14 15 15 16 17 17 17 17 18 19 20 18 21 20 19 18 20 21 20 18 17 16 18
7 8 9 10 11 10 10 10 10 11 11 12 13 13 12 13 13 14 15 15 16 16 15 14 14 15 16 17 17 17 18 18 18 19 19 21 18 16 16 18 20 20 19 17 16 16 17
5 8 8 9 11 10 10 10 10 11 11 11 12 13 12 13 13 13 14 15 16 15 16 14 14 15 15 16 15 15 17 15 18 18 21 20 17 15 18 19 19 19 20 18 18 16 17
2 5 7 8 10 10 10 10 10 10 11 11 12 13 12 12 13 13 14 15 15 15 16 15 15 15 15 15 15 14 15 15 15 16 17 16 14 16 18 17 19 18 17 17 17 18 20
2 3 6 8 9 10 10 10 10 10 11 11 12 12 12 12 12 13 14 15 15 15 13 14 15 14 14 16 15 14 15 15 16 14 16 13 16 17 18 16 16 16 16 17 18 18 18
1 2 5 7 8 10 10 10 10 10 10 11 12 12 12 12 12 13 14 15 15 13 12 14 15 15 16 15 14 14 14 15 13 15 14 13 12 14 14 14 15 15 16 17 17 17 18
1 2 4 6 8 10 10 10 10 10 10 11 12 12 11 12 12 13 14 15 12 13 13 14 15 16 17 16 15 16 16 16 17 15 15 15 13 13 14 15 15 17 17 16 17 17 19
1 2 3 4 7 9 10 10 10 10 9 11 11 11 11 12 12 13 13 15 12 13 14 13 14 16 16 16 14 14 15 15 14 16 16 16 14 14 12 14 17 17 17 16 17 19 19
1 2 3 4 7 7 8 10 9 10 9 10 11 11 11 12 12 13 13 8 11 14 14 13 14 15 14 15 15 15 16 17 15 15 17 15 13 12 11 12 14 15 15 14 15 13 16
1 1 2 3 5 6 8 9 9 9 8 10 11 10 9 11 11 12 13 10 13 13 13 14 14 15 15 15 15 16 15 15 13 13 12 13 13 12 12 12 12 13 13 14 13 13 14
1 1 2 3 4 5 7 8 9 9 8 10 10 9 9 11 11 12 8 13 13 12 13 14 13 13 15 14 16 16 16 13 13 11 12 13 14 11 12 13 15 12 13 12 14 14 16
0 0 2 3 3 5 6 7 9 9 8 8 9 8 9 10 11 9 11 14 12 13 12 13 13 14 14 15 15 15 15 13 12 12 14 12 13 13 13 11 10 12 14 14 13 11 13
0 0 1 3 3 5 6 7 8 8 6 8 8 6 8 9 7 10 11 13 12 13 13 13 13 14 13 14 14 14 13 9 10 12 14 12 13 11 13 11 10 11 11 5 5 13 14
-0 0 1 2 3 4 5 7 7 8 8 8 9 3 6 8 10 12 12 13 13 12 13 13 12 12 12 13 12 12 11 9 9 10 10 12 12 12 16 12 10 6 6 3 7 11 15
-0 0 1 2 3 4 5 6 7 8 6 9 8 5 8 5 7 12 13 13 14 13 13 13 12 13 14 11 12 11 11 10 9 8 10 12 9 8 8 10 11 12 10 8 6 11 14
0 1 1 1 2 3 5 6 6 7 4 8 7 6 7 10 10 11 11 12 13 13 13 13 14 13 12 11 14 11 12 12 13 9 11 9 9 11 8 9 10 11 11 11 11 12 13
1 1 1 2 3 4 5 6 6 7 5 7 8 8 10 10 10 11 11 13 13 14 11 13 13 11 12 12 11 12 12 12 12 12 11 11 8 10 11 9 10 10 12 12 12 12 13
0 1 1 2 2 3 4 6 6 7 7 7 9 9 8 7 10 11 12 12 13 13 12 10 11 13 9 9 9 9 9 9 10 8 10 10 9 8 8 9 10 13 11 12 12 12 12
-0 1 1 2 2 3 4 5 6 7 5 7 9 11 9 7 9 10 10 11 11 11 11 10 8 11 10 10 10 8 8 9 8 8 9 9 9 6 8 11 14 14 10 10 11 14 12
-0 0 1 1 3 3 3 4 6 6 5 6 9 10 10 7 8 9 9 10 11 11 9 6 8 8 8 9 8 11 10 10 7 8 7 8 9 11 8 9 11 12 10 9 10 12 10
-1 -0 1 1 1 2 3 4 5 6 4 6 8 9 10 7 6 8 9 10 11 11 9 6 6 6 6 7 9 10 11 10 9 8 6 8 8 8 8 10 12 11 9 9 11 11 8
-0 -0 1 1 2 3 4 4 5 4 4 5 6 6 9 7 5 7 8 9 8 10 7 6 7 6 5 8 10 8 10 9 10 10 8 8 8 7 8 7 9 9 9 10 9 6 7
-1 0 0 1 2 3 4 5 5 4 3 4 6 7 8 8 5 6 7 8 8 9 10 7 9 8 8 8 7 7 7 6 10 10 9 9 11 10 10 10 7 7 7 5 6 6 6